カタログに戻る

BPA 3/SL-24

運用中科学PO
NORAD 39448·PAYLOAD·🇺🇦 Ukraine

打ち上げ Nov 21, 2013 から Dombarovsky

Loading…

次のパス (今後24時間)

TLE

最新Source: Space-Track

元期: Sep 14, 2026, 07:31 UTC

1 39448U 13066AJ  26257.31358312  .00000100  00000-0  55577-4 0  9996
2 39448  97.6884  42.5938 0677893 149.4655 214.7840 13.43262063627851

AllMySatでBPA 3/SL-24をリアルタイム追跡

Download on the App Store